GW3424 Weather Reports


Display with metric or nautical units.
time (UTC)temp
F
wind
direction
speed
MPH
gust
MPH
rain 1hr
in
rain 24hr
in
rain mn
in
humidity
%
barometer
mb
20260831211050 83 311 17.0 26.0 0.00 0.16 0.00 61 978.1
20260831210549 83 313 17.0 29.0 0.00 0.16 0.00 62 978.1
20260831210049 83 302 17.0 29.0 0.00 0.16 0.00 62 978.4
20260831205550 84 344 17.0 26.0 0.00 0.16 0.00 63 978.5
20260831205050 83 329 16.0 25.0 0.00 0.16 0.00 64 978.6
20260831204555 83 284 16.0 24.0 0.00 0.16 0.00 64 978.6
20260831204053 83 309 18.0 26.0 0.00 0.16 0.00 63 978.8
20260831203552 84 311 13.0 26.0 0.00 0.16 0.00 62 978.7
20260831203059 84 301 13.0 21.0 0.00 0.16 0.00 62 978.7
20260831202552 84 336 13.0 21.0 0.00 0.16 0.00 63 978.7
20260831202050 83 317 15.0 21.0 0.00 0.16 0.00 63 978.7
20260831201602 84 318 15.0 21.0 0.00 0.16 0.00 64 978.7
20260831201051 83 299 14.0 25.0 0.00 0.16 0.00 64 978.7
20260831200550 83 298 16.0 25.0 0.00 0.16 0.00 65 978.8
20260831200051 83 298 16.0 25.0 0.00 0.16 0.00 65 979.0
20260831195553 82 323 14.0 25.0 0.00 0.16 0.00 65 978.9
20260831195053 82 315 15.0 24.0 0.00 0.16 0.00 65 978.8
20260831194550 82 296 16.0 25.0 0.00 0.16 0.00 66 978.9
20260831194050 82 319 15.0 25.0 0.00 0.16 0.00 67 979.0
20260831193550 81 284 16.0 23.0 0.00 0.16 0.00 67 979.0
20260831193121 81 346 14.0 26.0 0.00 0.16 0.00 67 979.0
20260831192549 81 329 13.0 26.0 0.00 0.16 0.00 70 979.1
20260831192052 81 315 16.0 24.0 0.00 0.16 0.00 69 978.9
20260831191552 80 316 13.0 24.0 0.00 0.16 0.00 70 979.1
20260831191151 80 281 17.0 23.0 0.00 0.16 0.00 70 979.1
20260831190650 80 304 17.0 23.0 0.00 0.16 0.00 70 979.1
20260831190152 80 282 15.0 22.0 0.00 0.16 0.00 68 979.2
20260831185550 81 296 15.0 21.0 0.00 0.16 0.00 67 979.1
20260831185052 81 302 13.0 21.0 0.00 0.16 0.00 68 979.4
20260831184049 80 295 12.0 19.0 0.00 0.16 0.00 72 979.4
20260831183550 80 326 12.0 19.0 0.00 0.16 0.00 72 979.5
20260831183058 80 336 13.0 22.0 0.00 0.16 0.00 71 979.3
20260831182551 80 330 14.0 22.0 0.00 0.16 0.00 71 979.4
20260831181050 79 334 13.0 22.0 0.00 0.16 0.00 73 979.4
20260831180549 79 313 15.0 22.0 0.00 0.16 0.00 73 979.3
20260831180151 79 337 17.0 22.0 0.00 0.16 0.00 73 979.5
20260831175151 79 325 11.0 21.0 0.00 0.16 0.00 73 979.7
20260831174549 79 300 16.0 21.0 0.00 0.16 0.00 72 979.8
20260831174050 79 319 15.0 20.0 0.00 0.16 0.00 71 979.6
20260831172550 78 306 13.0 18.0 0.00 0.16 0.00 73 979.9
20260831172049 77 338 11.0 20.0 0.00 0.16 0.00 75 979.8
20260831171549 77 313 14.0 20.0 0.00 0.16 0.00 75 979.8
20260831170050 77 336 9.0 14.0 0.00 0.16 0.00 77 979.8
20260831165549 77 312 8.0 14.0 0.00 0.16 0.00 77 979.8
20260831165050 77 294 10.0 17.0 0.00 0.16 0.00 78 979.8
20260831164606 77 303 12.0 17.0 0.00 0.16 0.00 78 980.0
20260831163551 77 288 10.0 15.0 0.00 0.16 0.00 80 979.9
20260831163050 76 321 8.0 15.0 0.00 0.16 0.00 80 979.9
20260831162550 76 297 4.0 15.0 0.00 0.16 0.00 81 979.8
20260831161050 76 319 11.0 17.0 0.00 0.16 0.00 80 979.4
20260831160549 76 308 9.0 21.0 0.00 0.16 0.00 81 979.1
20260831160103 76 309 11.0 22.0 0.00 0.16 0.00 80 979.1
20260831154604 76 286 13.0 18.0 0.00 0.16 0.00 80 979.0
20260831154050 76 291 11.0 16.0 0.00 0.16 0.00 80 978.8
20260831153050 75 281 9.0 15.0 0.00 0.16 0.00 81 979.1
20260831152553 75 279 11.0 16.0 0.00 0.16 0.00 81 979.0
20260831152051 75 290 9.0 16.0 0.00 0.16 0.00 80 978.8
20260831151550 75 321 9.0 17.0 0.00 0.16 0.00 79 978.8
20260831150554 76 302 12.0 21.0 0.00 0.16 0.00 80 978.7
20260831150054 76 296 9.0 23.0 0.00 0.16 0.00 81 978.7
20260831145549 76 307 12.0 20.0 0.00 0.16 0.00 81 978.5
20260831145049 76 280 13.0 20.0 0.00 0.16 0.00 81 978.6
20260831144557 76 276 12.0 22.0 0.00 0.16 0.00 79 978.5
20260831144150 77 283 14.0 23.0 0.00 0.16 0.00 79 978.2
20260831143550 77 289 14.0 23.0 0.00 0.16 0.00 78 978.1
20260831143050 77 301 13.0 24.0 0.00 0.16 0.00 77 978.1
20260831142550 77 289 10.0 24.0 0.00 0.16 0.00 77 977.9
20260831142050 77 269 14.0 23.0 0.00 0.16 0.00 76 977.9
20260831141551 78 285 11.0 19.0 0.00 0.16 0.00 76 977.8
20260831141050 78 275 11.0 18.0 0.00 0.16 0.00 75 977.6
20260831140549 78 279 11.0 19.0 0.00 0.16 0.00 75 977.5
20260831140053 78 300 9.0 14.0 0.00 0.16 0.00 75 977.3
20260831135550 78 304 8.0 14.0 0.00 0.16 0.00 75 977.1
20260831135050 78 288 9.0 12.0 0.00 0.16 0.00 74 976.9
20260831134558 78 274 5.0 11.0 0.00 0.16 0.00 72 976.8
20260831134049 78 291 0.0 7.0 0.00 0.16 0.00 71 976.5
20260831133549 78 296 1.0 10.0 0.00 0.16 0.00 71 976.4
20260831133050 78 304 7.0 10.0 0.00 0.16 0.00 71 976.3
20260831132549 78 312 4.0 9.0 0.00 0.16 0.00 71 976.3
20260831132051 78 332 5.0 9.0 0.00 0.16 0.00 71 976.2
20260831131559 78 319 1.0 9.0 0.00 0.16 0.00 71 976.1
20260831131049 78 319 4.0 9.0 0.00 0.16 0.00 70 975.9
20260831130549 78 302 1.0 7.0 0.00 0.16 0.00 70 975.9
20260831130049 78 304 1.0 6.0 0.00 0.16 0.00 70 975.8
20260831125549 78 304 1.0 5.0 0.00 0.16 0.00 70 975.9
20260831125050 78 305 1.0 5.0 0.00 0.16 0.00 70 975.9
20260831124550 78 311 0.0 5.0 0.00 0.16 0.00 70 975.6
20260831124052 78 306 1.0 5.0 0.00 0.16 0.00 70 975.6
20260831123550 78 294 0.0 6.0 0.00 0.16 0.00 70 975.7
20260831123049 79 294 3.0 7.0 0.00 0.16 0.00 69 975.5
20260831122550 79 277 2.0 7.0 0.00 0.16 0.00 68 975.3
20260831122049 79 287 2.0 10.0 0.00 0.16 0.00 67 975.3
20260831121550 79 322 5.0 11.0 0.00 0.16 0.00 66 975.4
20260831121049 79 317 7.0 10.0 0.00 0.16 0.00 66 975.4
20260831120550 79 307 4.0 9.0 0.00 0.16 0.00 66 975.3
20260831120050 79 309 4.0 8.0 0.00 0.16 0.00 67 975.3
20260831115549 78 309 2.0 8.0 0.00 0.16 0.00 69 975.3
20260831115049 78 297 1.0 5.0 0.00 0.16 0.00 70 975.3
20260831114549 78 304 2.0 5.0 0.00 0.16 0.00 72 975.3
20260831114051 78 273 0.0 2.0 0.00 0.16 0.00 73 975.3
20260831113551 78 272 0.0 2.0 0.00 0.16 0.00 73 975.1
20260831113050 78 272 0.0 3.0 0.00 0.16 0.00 72 974.9
20260831112551 78 272 1.0 3.0 0.00 0.16 0.00 72 974.9
20260831112050 78 273 0.0 3.0 0.00 0.16 0.00 72 974.9
20260831111553 78 273 0.0 2.0 0.00 0.16 0.00 73 974.7
20260831111049 78 273 0.0 6.0 0.00 0.16 0.00 73 974.5
20260831110552 78 273 1.0 7.0 0.00 0.16 0.00 73 974.4
20260831110049 77 278 1.0 5.0 0.00 0.16 0.00 74 974.3
20260831105550 77 284 2.0 7.0 0.00 0.16 0.00 74 974.3
20260831105051 77 284 2.0 7.0 0.00 0.16 0.00 74 974.4
20260831104551 77 281 2.0 8.0 0.00 0.16 0.00 75 974.3
20260831104049 77 311 4.0 8.0 0.00 0.16 0.00 75 974.1
20260831103549 77 288 3.0 8.0 0.00 0.16 0.00 75 974.0
20260831103051 77 281 3.0 8.0 0.00 0.16 0.00 75 974.0
20260831102549 77 290 3.0 8.0 0.00 0.16 0.00 75 974.2
20260831102049 77 282 2.0 7.0 0.00 0.16 0.00 75 974.2
20260831101551 77 290 1.0 7.0 0.00 0.16 0.00 74 974.3
20260831101050 77 293 2.0 7.0 0.00 0.16 0.00 74 974.3
20260831100551 77 286 2.0 7.0 0.00 0.16 0.00 73 974.3
20260831100104 77 285 1.0 7.0 0.00 0.16 0.00 72 974.4
20260831095552 78 284 3.0 7.0 0.00 0.16 0.00 72 974.4
20260831095050 78 290 1.0 5.0 0.00 0.16 0.00 71 974.4
20260831094550 78 282 0.0 4.0 0.00 0.16 0.00 70 974.4
20260831094050 78 286 2.0 4.0 0.00 0.16 0.00 69 974.5
20260831093550 79 285 1.0 5.0 0.00 0.16 0.00 68 974.5
20260831093057 79 286 2.0 6.0 0.00 0.16 0.00 68 974.5
20260831092551 79 284 2.0 6.0 0.00 0.16 0.00 66 974.5
20260831092050 80 292 5.0 7.0 0.00 0.16 0.00 66 974.4
20260831091549 80 289 2.0 9.0 0.00 0.16 0.00 65 974.5
20260831091049 80 293 3.0 10.0 0.00 0.16 0.00 65 974.6
20260831090549 80 302 5.0 10.0 0.00 0.16 0.00 65 974.7
20260831090058 80 321 6.0 11.0 0.00 0.16 0.00 65 974.6
20260831085649 80 303 3.0 11.0 0.00 0.16 0.00 65 974.6
20260831085053 80 323 5.0 10.0 0.00 0.16 0.00 66 974.6
20260831084549 80 313 6.0 12.0 0.00 0.16 0.00 66 974.6
20260831084052 80 293 8.0 12.0 0.00 0.16 0.00 65 974.7
20260831083549 80 298 3.0 10.0 0.00 0.16 0.00 66 974.8
20260831082550 80 276 5.0 11.0 0.00 0.16 0.00 65 974.7
20260831082050 80 291 7.0 14.0 0.00 0.16 0.00 65 974.6
20260831081558 80 320 7.0 11.0 0.00 0.16 0.00 66 974.8
20260831081049 80 311 3.0 9.0 0.00 0.16 0.00 66 974.7
20260831080651 80 320 5.0 11.0 0.00 0.16 0.00 66 974.7
20260831080122 80 350 5.0 11.0 0.00 0.16 0.00 66 974.7
20260831075549 80 288 3.0 8.0 0.00 0.16 0.00 66 974.8
20260831075049 80 286 1.0 8.0 0.00 0.16 0.00 66 974.9
20260831074549 80 309 5.0 8.0 0.00 0.16 0.00 66 975.1
20260831074050 80 255 1.0 4.0 0.00 0.16 0.00 64 975.0
20260831073050 80 256 1.0 10.0 0.00 0.16 0.00 65 975.1
20260831072549 80 259 4.0 10.0 0.00 0.16 0.00 65 975.2
20260831072049 80 174 4.0 10.0 0.00 0.16 0.00 64 975.1
20260831071650 81 232 3.0 11.0 0.00 0.16 0.00 65 975.2
20260831071150 81 338 3.0 11.0 0.00 0.16 0.00 64 975.3
20260831070549 81 319 3.0 9.0 0.00 0.16 0.00 62 975.2
20260831070050 81 215 3.0 8.0 0.01 0.16 0.00 60 974.8
20260831065550 81 186 0.0 14.0 0.01 0.16 0.16 60 974.8
20260831065051 81 156 7.0 14.0 0.01 0.16 0.16 60 974.7
20260831064551 81 134 5.0 16.0 0.01 0.16 0.16 60 974.5
20260831064045 82 136 9.0 18.0 0.01 0.16 0.16 61 974.4
20260831063544 81 163 10.0 18.0 0.01 0.16 0.16 62 974.3
20260831063100 81 168 7.0 19.0 0.01 0.16 0.16 65 974.2
20260831062545 81 152 8.0 19.0 0.01 0.16 0.16 65 974.4
20260831061542 83 173 10.0 27.0 0.01 0.16 0.16 62 974.4
20260831061041 84 143 14.0 38.0 0.01 0.16 0.16 60 974.2
20260831060539 84 159 12.0 38.0 0.01 0.16 0.16 56 974.3
20260831060040 83 167 10.0 20.0 0.00 0.15 0.15 65 974.1
20260831055540 83 192 3.0 8.0 0.01 0.15 0.15 66 973.6
20260831055045 82 45 2.0 6.0 0.06 0.15 0.15 58 973.3
20260831054540 81 333 0.0 3.0 0.10 0.15 0.15 63 973.0
20260831054040 81 332 0.0 9.0 0.14 0.15 0.15 63 972.9
20260831053140 81 360 7.0 10.0 0.15 0.15 0.15 64 973.8
20260831052539 82 339 4.0 12.0 0.15 0.15 0.15 64 974.1
20260831052040 82 355 8.0 16.0 0.15 0.15 0.15 63 974.5
20260831051540 82 350 9.0 22.0 0.15 0.15 0.15 62 974.9
20260831050540 82 17 22.0 45.0 0.15 0.15 0.15 60 975.0
20260831050140 82 31 30.0 45.0 0.15 0.15 0.15 58 974.9
20260831045540 82 36 26.0 43.0 0.13 0.13 0.13 60 975.1
20260831044634 84 30 33.0 42.0 0.05 0.05 0.05 57 974.8
20260831044039 86 360 26.0 39.0 0.01 0.01 0.01 56 974.8
20260831043540 87 11 26.0 42.0 0.00 0.00 0.00 56 974.5
20260831043040 87 26 25.0 42.0 0.00 0.00 0.00 54 974.3
20260831042540 88 351 28.0 42.0 0.00 0.00 0.00 51 974.3
20260831042141 89 360 32.0 42.0 0.00 0.00 0.00 50 973.7
20260831041540 93 17 19.0 30.0 0.00 0.00 0.00 47 972.8
20260831041040 95 15 21.0 30.0 0.00 0.00 0.00 45 972.5
20260831040540 96 17 17.0 24.0 0.00 0.00 0.00 40 971.9
20260831040040 97 17 16.0 26.0 0.00 0.00 0.00 38 971.9
20260831035540 97 15 16.0 31.0 0.00 0.00 0.00 38 971.8
20260831035039 98 360 20.0 31.0 0.00 0.00 0.00 36 971.7
20260831034540 99 23 18.0 31.0 0.00 0.00 0.00 35 971.7
20260831034040 100 360 16.0 24.0 0.00 0.00 0.00 34 971.5
20260831033540 101 360 7.0 12.0 0.00 0.00 0.00 32 971.5
20260831033053 101 360 7.0 12.0 0.00 0.00 0.00 32 971.2
20260831032542 101 360 8.0 12.0 0.00 0.00 0.00 31 971.0
20260831032040 101 360 4.0 10.0 0.00 0.00 0.00 31 971.1
20260831031542 102 360 6.0 11.0 0.00 0.00 0.00 30 971.0
20260831031039 102 360 6.0 11.0 0.00 0.00 0.00 30 971.0
20260831030544 101 360 6.0 13.0 0.00 0.00 0.00 30 971.1
20260831030040 101 360 4.0 13.0 0.00 0.00 0.00 30 971.0
20260831025540 100 360 3.0 6.0 0.00 0.00 0.00 31 971.0
20260831025041 100 360 3.0 6.0 0.00 0.00 0.00 32 970.9
20260831024540 100 360 4.0 6.0 0.00 0.00 0.00 32 970.9
20260831024043 101 360 3.0 5.0 0.00 0.00 0.00 32 970.8
20260831023539 101 360 2.0 6.0 0.00 0.00 0.00 32 970.7
20260831023040 101 12 4.0 8.0 0.00 0.00 0.00 31 970.5
20260831022542 102 14 4.0 9.0 0.00 0.00 0.00 31 970.5
20260831022040 102 17 6.0 13.0 0.00 0.00 0.00 29 970.5
20260831021540 102 13 7.0 13.0 0.00 0.00 0.00 29 970.4
20260831021040 102 12 6.0 12.0 0.00 0.00 0.00 29 970.2
20260831020539 102 13 8.0 12.0 0.00 0.00 0.00 29 970.2
20260831020040 102 15 7.0 12.0 0.00 0.00 0.00 29 970.0
20260831015539 103 13 6.0 11.0 0.00 0.00 0.00 29 970.0
20260831015042 102 17 7.0 11.0 0.00 0.00 0.00 29 969.9
20260831014541 102 114 7.0 10.0 0.00 0.00 0.00 29 969.9
20260831014040 102 134 6.0 10.0 0.00 0.00 0.00 30 969.8
20260831013540 102 137 2.0 8.0 0.00 0.00 0.00 31 969.8
20260831013040 103 144 2.0 11.0 0.00 0.00 0.00 31 969.8
20260831012540 103 142 7.0 12.0 0.00 0.00 0.00 31 969.8
20260831012039 103 162 7.0 12.0 0.00 0.00 0.00 31 969.7
20260831011548 103 143 8.0 11.0 0.00 0.00 0.00 30 969.8
20260831011039 103 115 6.0 11.0 0.00 0.00 0.00 30 969.8
20260831010539 104 118 5.0 11.0 0.00 0.00 0.00 30 969.8
20260831010056 104 198 3.0 8.0 0.00 0.00 0.00 30 969.8
20260831005540 104 182 4.0 8.0 0.00 0.00 0.00 31 969.8
20260831005040 103 150 5.0 9.0 0.00 0.00 0.00 31 970.0
20260831004540 103 44 4.0 12.0 0.00 0.00 0.00 31 969.9
20260831004040 103 83 8.0 12.0 0.00 0.00 0.00 30 970.0
20260831003540 104 73 5.0 15.0 0.00 0.00 0.00 30 970.0
20260831003040 104 143 9.0 15.0 0.00 0.00 0.00 30 969.9
20260831002539 104 130 9.0 18.0 0.00 0.00 0.00 30 970.0
20260831002040 104 130 11.0 18.0 0.00 0.00 0.00 30 970.0
20260831001540 104 140 11.0 15.0 0.00 0.00 0.00 30 970.0
20260831001040 104 132 6.0 10.0 0.00 0.00 0.00 30 970.0
20260831000539 104 169 7.0 12.0 0.00 0.00 0.00 30 970.1
20260831000040 104 99 7.0 13.0 0.00 0.00 0.00 30 970.1
20260830235540 104 111 9.0 14.0 0.00 0.00 0.00 30 970.1
20260830235039 104 90 10.0 14.0 0.00 0.00 0.00 29 970.2
20260830234540 104 73 8.0 13.0 0.00 0.00 0.00 29 970.1
20260830234040 104 90 9.0 20.0 0.00 0.00 0.00 29 970.2
20260830233541 104 82 7.0 14.0 0.00 0.00 0.00 29 970.1
20260830233042 104 142 7.0 16.0 0.00 0.00 0.00 29 970.2
20260830232541 104 138 11.0 16.0 0.00 0.00 0.00 29 970.3
20260830232040 104 94 8.0 18.0 0.00 0.00 0.00 29 970.4
20260830231540 105 105 9.0 13.0 0.00 0.00 0.00 29 970.6
20260830231040 104 126 3.0 12.0 0.00 0.00 0.00 29 970.6
20260830230542 104 112 7.0 13.0 0.00 0.00 0.00 30 970.6
20260830230039 104 103 4.0 13.0 0.00 0.00 0.00 30 970.6
20260830225540 104 121 10.0 16.0 0.00 0.00 0.00 30 970.6
20260830225040 104 94 10.0 16.0 0.00 0.00 0.00 30 970.8
20260830224541 104 121 10.0 15.0 0.00 0.00 0.00 29 971.0
20260830224040 104 53 9.0 15.0 0.00 0.00 0.00 29 970.9
20260830223540 104 106 7.0 13.0 0.00 0.00 0.00 29 971.1
20260830223040 104 114 3.0 13.0 0.00 0.00 0.00 30 971.1
20260830222540 104 130 7.0 15.0 0.00 0.00 0.00 30 971.2
20260830222040 104 95 9.0 15.0 0.00 0.00 0.00 30 971.3
20260830221540 104 110 9.0 17.0 0.00 0.00 0.00 30 971.5
20260830221040 104 124 7.0 17.0 0.00 0.00 0.00 30 971.4
20260830220540 104 129 7.0 16.0 0.00 0.00 0.00 30 971.5
20260830220040 104 134 11.0 16.0 0.00 0.00 0.00 30 971.8
20260830215540 104 124 9.0 14.0 0.00 0.00 0.00 30 971.7
20260830215040 104 100 10.0 15.0 0.00 0.00 0.00 30 971.9
20260830214539 104 63 3.0 15.0 0.00 0.00 0.00 30 972.1
20260830214039 104 66 7.0 15.0 0.00 0.00 0.00 29 972.2
20260830213539 104 124 2.0 12.0 0.00 0.00 0.00 30 972.1
20260830213053 104 163 7.0 12.0 0.00 0.00 0.00 30 972.3
20260830212542 103 94 6.0 14.0 0.00 0.00 0.00 30 972.5
20260830212040 103 66 10.0 16.0 0.00 0.00 0.00 31 972.5
20260830211540 104 98 8.0 16.0 0.00 0.00 0.00 30 972.6